Regional Weather Roundup
Issued by NWS Burlington, VT

Home | Current Version | Previous Version | Text Only | Print | Product List | Glossary On
Versions: 1 2 3 4 5 6 7 8 9 10 11 12 13 14 15 16 17 18 19 20 21 22 23 24 25 26 27 28 29 30 31 32 33 34 35 36 37 38 39 40 41 42 43 44 45 46 47 48 49 50
000
ASUS41 KBTV 240930
RWRBTV
VERMONT REGIONAL WEATHER ROUNDUP
NATIONAL WEATHER SERVICE BURLINGTON VT
400 AM EST FRI NOV 24 2017

NOTE: "FAIR" INDICATES FEW OR NO CLOUDS BELOW 12,000 FEET WITH NO
SIGNIFICANT WEATHER AND/OR OBSTRUCTIONS TO VISIBILITY.

* THESE REPORTS ARE NOT UNDER NWS QUALITY CONTROL AND/OR DO NOT
  REPORT WEATHER SUCH AS PRECIPITATION AND FOG.

VTZ001>019-241000-
_____VERMONT_____


CITY           SKY/WX    TMP DP  RH WIND       PRES   REMARKS
BURLINGTON     CLOUDY    35  25  66 S12       29.90S WCI  27
MONTPELIER     CLOUDY    32  26  78 S6        29.92F WCI  26
MORRISVILLE    CLOUDY    34  26  72 SW7       29.89F WCI  28
ST. JOHNSBURY*   N/A     31  22  69 MISG      29.88F
LYNDONVILLE*   CLOUDY    28  20  74 CALM      29.89S
MIDDLEBURY*    CLOUDY    33  24  69 SE5       29.93S WCI  29
RUTLAND*       CLOUDY    34  23  64 SW6       29.93F WCI  29
SPRINGFIELD    CLOUDY    30  25  81 CALM      29.95S
HIGHGATE*      CLOUDY    34  29  82 S3        29.89R
NEWPORT*       CLOUDY    31  26  80 SW6       29.87S WCI  25
BENNINGTON     CLOUDY    30  25  81 CALM      29.95F
SUTTON*          N/A     27 N/A N/A MISG        N/A
ISLAND POND*     N/A     28 N/A N/A S1          N/A
GALLUP MILLS*    N/A     27 N/A N/A MISG        N/A
UNION VILLAGE*   N/A     28 N/A N/A MISG        N/A

_____LAKE CHAMPLAIN_____


CITY           SKY/WX    TMP DP  RH WIND       PRES   REMARKS
BURTON ISLAND*   N/A     39  32  75 W13G20      N/A  WCI  32
COLCHESTER RF*   N/A     39  32  75 SW16        N/A  WCI  30
DIAMOND ISL*     N/A     37  30  75 S10G16      N/A  WCI  30

$$

NYZ007-026>031-035-052-083-087-241000-
_____NORTHERN NEW YORK_____


CITY           SKY/WX    TMP DP  RH WIND       PRES   REMARKS
PLATTSBURGH    CLOUDY    38  28  67 SW5       29.90S
SARANAC LAKE   CLOUDY    30  28  92 MISG      29.84F
MASSENA        CLOUDY    36  29  75 VRB6      29.89S WCI  31
OGDENSBURG*    MOCLDY    37  28  72 SW9       29.88S WCI  30
POTSDAM*       CLOUDY    36  34  93 SW9       29.88S WCI  29
STARK FALLS*     N/A     32 N/A N/A S7          N/A  WCI  26
WATERTOWN      CLOUDY    39  32  76 W7        29.92S
FT DRUM        CLOUDY    36  28  74 SW6       29.90S WCI  31
ALBANY         CLOUDY    32  20  61 S7        29.98F WCI  26
GLENS FALLS    CLOUDY    32  24  72 S5        29.96S WCI  27

$$
NHZ002-005-011-241000-
_____NEW HAMPSHIRE_____


CITY           SKY/WX    TMP DP  RH WIND       PRES   REMARKS
LEBANON        CLOUDY    32  24  72 CALM      29.93F
KEENE          PTCLDY    21  16  81 CALM      29.98R
MT WASHINGTON  FOG       12  12 100 W62G70      N/A  VSB 0   WCI -16
PLYMOUTH       CLOUDY    28  22  80 CALM      29.93F
WHITEFIELD     CLOUDY    29  22  75 W3        29.88S

$$

_____REGIONAL QUEBEC LOCATIONS_____


CITY           SKY/WX    TMP DP  RH WIND       PRES   REMARKS
MONTREAL       CLOUDY    36  28  75 SW15G21   29.86S WCI  26
QUEBEC CITY    SNOWSHWR  30  27  86 W6        29.80R WCI  24
SHERBROOKE     FLURRIES  30  28  93 SW9       29.84S WCI  22

_____REGIONAL ONTARIO LOCATIONS_____


CITY           SKY/WX    TMP DP  RH WIND       PRES   REMARKS
OTTAWA         CLOUDY    34  27  75 SW7       29.86S WCI  28

______KEY______
VSB  - VISIBILITY IN MILES
WCI  - WIND CHILL INDEX
HX   - HEAT INDEX
$$
NNNN




USA.gov is the U.S. government's official web portal to all federal, state and local government web resources and services.